TimeEET,TemperatureF,Dew PointF,Humidity,Sea Level PressureIn,VisibilityMPH,Wind Direction,Wind SpeedMPH,Gust SpeedMPH,PrecipitationIn,Events,Conditions,WindDirDegrees,DateUTC
12:00 AM,73.4,64.4,73,29.95,-9999.0,East,11.5,-,N/A,,Clear,80,2012-10-22 22:00:00
12:30 AM,71.6,62.6,73,29.95,-9999.0,NE,8.1,-,N/A,,Clear,40,2012-10-22 22:30:00
1:00 AM,71.6,64.4,78,29.95,-9999.0,NE,8.1,-,N/A,,Clear,40,2012-10-22 23:00:00
1:30 AM,71.6,64.4,78,29.95,-9999.0,NNE,6.9,-,N/A,,Clear,20,2012-10-22 23:30:00
2:00 AM,72,64,68,29.96,6,North,6.9,,,,,10,2012-10-23 00:00:00
2:00 AM,71.6,64.4,78,29.95,-9999.0,North,6.9,-,N/A,,Clear,10,2012-10-23 00:00:00
2:30 AM,69.8,62.6,78,29.95,-9999.0,ENE,6.9,-,N/A,,Clear,60,2012-10-23 00:30:00
3:00 AM,69.8,62.6,78,29.95,-9999.0,ENE,4.6,-,N/A,,Clear,70,2012-10-23 01:00:00
3:30 AM,69.8,62.6,78,29.92,-9999.0,East,5.8,-,N/A,,Clear,90,2012-10-23 01:30:00
4:00 AM,69.8,62.6,78,29.92,-9999.0,East,5.8,-,N/A,,Clear,90,2012-10-23 02:00:00
4:30 AM,69.8,62.6,78,29.92,-9999.0,East,5.8,-,N/A,,Clear,80,2012-10-23 02:30:00
5:30 AM,69.8,62.6,78,29.92,-9999.0,East,3.5,-,N/A,,Clear,100,2012-10-23 03:30:00
6:00 AM,68.0,62.6,83,29.95,3.7,East,3.5,-,N/A,,Unknown,100,2012-10-23 04:00:00
6:30 AM,69.8,62.6,78,29.95,3.7,ENE,2.3,-,N/A,,Unknown,70,2012-10-23 04:30:00
7:00 AM,71.6,62.6,73,29.95,3.7,East,2.3,-,N/A,,Unknown,100,2012-10-23 05:00:00
7:30 AM,73.4,62.6,69,29.95,-9999.0,SSE,2.3,-,N/A,,Clear,160,2012-10-23 05:30:00
8:00 AM,76,62,53,29.97,6,Calm,Calm,,,,,,2012-10-23 06:00:00
8:00 AM,75.2,62.6,65,29.98,-9999.0,Calm,Calm,-,N/A,,Clear,0,2012-10-23 06:00:00
8:30 AM,78.8,59.0,51,29.98,-9999.0,NW,1.2,-,N/A,,Clear,320,2012-10-23 06:30:00
9:00 AM,78.8,57.2,47,29.98,-9999.0,North,4.6,-,N/A,,Clear,350,2012-10-23 07:00:00
9:30 AM,82.4,55.4,39,29.98,-9999.0,North,3.5,-,N/A,,Clear,360,2012-10-23 07:30:00
10:00 AM,82.4,55.4,39,29.98,-9999.0,WSW,3.5,-,N/A,,Clear,250,2012-10-23 08:00:00
10:30 AM,82.4,55.4,39,29.98,-9999.0,West,5.8,-,N/A,,Clear,270,2012-10-23 08:30:00
11:00 AM,82.4,57.2,42,29.98,6.2,WNW,10.4,-,N/A,,Scattered Clouds,300,2012-10-23 09:00:00
11:30 AM,82.4,51.8,35,29.95,6.2,WNW,5.8,-,N/A,,Mostly Cloudy,300,2012-10-23 09:30:00
12:00 PM,84.2,50.0,30,29.95,6.2,West,8.1,-,N/A,,Mostly Cloudy,280,2012-10-23 10:00:00
12:30 PM,84.2,48.2,29,29.95,6.2,West,8.1,-,N/A,,Mostly Cloudy,280,2012-10-23 10:30:00
1:00 PM,84.2,44.6,25,29.95,6.2,West,6.9,-,N/A,,Mostly Cloudy,270,2012-10-23 11:00:00
1:30 PM,84.2,48.2,29,29.95,6.2,West,10.4,-,N/A,,Mostly Cloudy,270,2012-10-23 11:30:00
2:00 PM,84,58,31,29.92,6,NW,10.4,,,,Mostly Cloudy,310,2012-10-23 12:00:00
2:00 PM,84.2,57.2,40,29.95,6.2,NW,10.4,-,N/A,,Mostly Cloudy,310,2012-10-23 12:00:00
2:30 PM,84.2,51.8,33,29.92,6.2,WNW,8.1,-,N/A,,Mostly Cloudy,300,2012-10-23 12:30:00
3:00 PM,84.2,51.8,33,29.92,6.2,NW,6.9,-,N/A,,Mostly Cloudy,320,2012-10-23 13:00:00
3:30 PM,84.2,51.8,33,29.92,6.2,NW,6.9,-,N/A,,Mostly Cloudy,320,2012-10-23 13:30:00
4:00 PM,84.2,50.0,30,29.92,6.2,NW,6.9,-,N/A,,Mostly Cloudy,320,2012-10-23 14:00:00
4:30 PM,84.2,50.0,30,29.92,6.2,NW,6.9,-,N/A,,Mostly Cloudy,320,2012-10-23 14:30:00
5:00 PM,82.4,59.0,45,29.92,6.2,NNW,8.1,-,N/A,,Scattered Clouds,340,2012-10-23 15:00:00
5:30 PM,80.6,51.8,37,29.92,6.2,NNW,8.1,-,N/A,,Scattered Clouds,340,2012-10-23 15:30:00
6:00 PM,78.8,55.4,44,29.92,6.2,NNW,13.8,-,N/A,,Scattered Clouds,340,2012-10-23 16:00:00
6:30 PM,78.8,55.4,44,29.92,6.2,NNW,13.8,-,N/A,,Scattered Clouds,340,2012-10-23 16:30:00
7:00 PM,77.0,50.0,39,29.95,-9999.0,NNW,13.8,-,N/A,,Clear,340,2012-10-23 17:00:00
7:30 PM,77.0,50.0,39,29.95,-9999.0,NNW,13.8,-,N/A,,Clear,340,2012-10-23 17:30:00
8:00 PM,78,55,34,29.96,6,North,10.4,,,,,10,2012-10-23 18:00:00
8:00 PM,77.0,55.4,47,29.95,-9999.0,North,10.4,-,N/A,,Clear,10,2012-10-23 18:00:00
8:30 PM,75.2,55.4,50,29.95,-9999.0,North,10.4,-,N/A,,Clear,10,2012-10-23 18:30:00
9:00 PM,73.4,59.0,61,29.98,-9999.0,North,10.4,-,N/A,,Clear,10,2012-10-23 19:00:00
9:30 PM,73.4,59.0,61,29.98,-9999.0,North,10.4,-,N/A,,Clear,10,2012-10-23 19:30:00
10:00 PM,73.4,60.8,65,29.98,-9999.0,ENE,15.0,-,N/A,,Clear,60,2012-10-23 20:00:00
10:30 PM,73.4,60.8,65,29.98,-9999.0,ENE,15.0,-,N/A,,Clear,60,2012-10-23 20:30:00
11:00 PM,71.6,62.6,73,29.95,-9999.0,NE,9.2,-,N/A,,Clear,50,2012-10-23 21:00:00
11:30 PM,71.6,62.6,73,29.95,-9999.0,NE,9.2,-,N/A,,Clear,50,2012-10-23 21:30:00